Stations météo

réclame
Mon MeteoGroup
Koksijde, Belgique (6400): Température de l'air & dewpoint: 12.11.2018 05:00:00 - 18.11.2018 05:00:00 (CET)Koksijde, Belgique (6400): Vitesse du vent & gusts: 12.11.2018 05:00:00 - 18.11.2018 05:00:00 (CET)Koksijde, Belgique (6400): Direction du vent: 12.11.2018 05:00:00 - 18.11.2018 05:00:00 (CET)Koksijde, Belgique (6400): reduced air pressure: 12.11.2018 05:00:00 - 18.11.2018 05:00:00 (CET)Koksijde, Belgique (6400): visibility: 12.11.2018 05:00:00 - 18.11.2018 05:00:00 (CET)
Date & Time tt [°C] td [°C] ff [km/h] ff [knt] fx [km/h] fx [knt] dd ppp [hPa] vv [km]
18.11.2018 05:00:00 2,1 -1,2 18 10 25 14 E 1028,4 8
18.11.2018 04:00:00 1,8 -0,9 18 10 - - E 1028,4 7
18.11.2018 03:00:00 1,7 -0,8 14 8 18 10 ENE 1028,2 6
18.11.2018 02:00:00 1,3 -1,1 11 6 14 8 ENE 1028,5 6
18.11.2018 01:00:00 1,7 -0,8 7 4 - - ENE 1028,5 6
18.11.2018 00:00:00 2,6 -0,1 11 6 22 12 E 1028,5 6
17.11.2018 23:00:00 3,7 0,8 18 10 22 12 ENE 1028,4 6
17.11.2018 22:00:00 4,3 1,2 14 8 - - E 1028,2 6
17.11.2018 21:00:00 3,9 1,0 14 8 22 12 E 1028,2 6
17.11.2018 20:00:00 4,4 1,0 14 8 25 14 E 1028,0 7
17.11.2018 19:00:00 5,2 1,2 14 8 - - ENE 1027,7 9
17.11.2018 18:00:00 5,6 2,2 14 8 22 12 ENE 1027,7 8
17.11.2018 17:00:00 6,6 2,4 14 8 25 14 E 1027,4 8
17.11.2018 16:00:00 8,1 3,2 18 10 - - E 1027,4 10
17.11.2018 15:00:00 9,1 2,9 22 12 29 16 E 1027,5 11
17.11.2018 14:00:00 8,6 3,6 22 12 29 16 E 1027,7 10
17.11.2018 13:00:00 8,1 3,8 15 8 - - E 1028,0 8
17.11.2018 12:00:00 6,3 3,5 14 8 22 12 E 1028,5 8
17.11.2018 11:00:00 4,9 3,3 11 6 18 10 E 1028,5 4,3
17.11.2018 10:00:00 2,4 2,0 13 7 - - E 1028,5 1,5
17.11.2018 09:00:00 2,0 1,7 11 6 18 10 E 1028,5 0,1
17.11.2018 08:00:00 2,5 2,1 11 6 18 10 E 1028,2 0,2
17.11.2018 07:00:00 3,0 2,5 11 6 - - E 1028,2 0,5
17.11.2018 06:00:00 3,1 2,7 7 4 14 8 ENE 1028,0 0,1
17.11.2018 05:00:00 3,9 3,8 7 4 14 8 E 1028,0 0,1
17.11.2018 04:00:00 4,2 4,0 11 6 - - ESE 1028,4 0,1
17.11.2018 03:00:00 4,8 4,3 9 5 18 10 E 1028,4 0,5
17.11.2018 02:00:00 5,6 5,1 11 6 18 10 E 1028,2 0,9
17.11.2018 01:00:00 5,5 4,9 11 6 - - ESE 1027,9 0,5
17.11.2018 00:00:00 6,3 5,4 11 6 22 12 ESE 1027,7 3,0
16.11.2018 23:00:00 6,3 5,4 11 6 18 10 ESE 1027,7 3,6
16.11.2018 22:00:00 6,0 5,6 11 6 - - SE 1027,5 4,1
16.11.2018 21:00:00 5,9 5,6 15 8 18 10 ESE 1027,7 1,0
16.11.2018 20:00:00 6,2 5,9 11 6 18 10 E 1027,5 0,4
16.11.2018 19:00:00 6,4 6,1 11 6 - - ESE 1027,2 0,3
16.11.2018 18:00:00 6,4 6,0 14 8 22 12 SE 1026,5 0,5
16.11.2018 17:00:00 6,7 6,4 11 6 18 10 SE 1026,5 0,6
16.11.2018 16:00:00 6,5 6,2 11 6 - - ESE 1026,7 0,5
16.11.2018 15:00:00 6,6 6,3 7 4 18 10 ESE 1027,0 0,6
16.11.2018 14:00:00 6,9 6,6 11 6 18 10 ESE 1026,9 0,5
16.11.2018 13:00:00 6,9 6,6 11 6 - - ESE 1027,2 0,8
16.11.2018 12:00:00 6,9 6,6 11 6 18 10 ESE 1027,4 0,6
16.11.2018 11:00:00 6,8 6,5 11 6 14 8 SE 1027,5 0,3
16.11.2018 10:00:00 6,5 6,2 11 6 - - SE 1026,9 0,6
16.11.2018 09:00:00 6,6 6,3 7 4 14 8 SE 1026,5 0,5
16.11.2018 08:00:00 6,6 6,4 11 6 14 8 SE 1026,2 0,7
16.11.2018 07:00:00 6,9 6,6 7 4 - - SSE 1025,7 0,6
16.11.2018 06:00:00 6,9 6,7 11 6 18 10 SSE 1025,4 0,3
16.11.2018 05:00:00 6,6 6,4 11 6 25 14 S 1025,4 0,3
16.11.2018 04:00:00 6,7 6,4 18 10 - - SSE 1024,7 0,3
16.11.2018 03:00:00 6,8 6,6 14 8 22 12 S 1025,0 0,2
16.11.2018 02:00:00 6,9 6,6 14 8 29 16 S 1024,7 0,2
16.11.2018 01:00:00 7,0 6,7 14 8 - - S 1024,5 0,2
16.11.2018 00:00:00 6,9 6,6 18 10 25 14 S 1024,4 0,2
15.11.2018 23:00:00 6,6 6,3 14 8 25 14 S 1024,0 0,3
15.11.2018 22:00:00 6,4 6,0 14 8 - - S 1024,2 0,2
15.11.2018 21:00:00 6,4 6,2 14 8 25 14 SSE 1023,8 0,3
15.11.2018 20:00:00 6,5 6,2 18 10 25 14 S 1023,7 0,2
15.11.2018 19:00:00 7,1 6,7 14 8 - - SSE 1023,6 0,2
15.11.2018 18:00:00 7,5 7,1 18 10 29 16 SSE 1023,2 0,5
15.11.2018 17:00:00 7,8 7,1 22 12 29 16 SSE 1023,1 1,6
15.11.2018 16:00:00 8,0 7,3 11 6 - - S 1022,8 2,5
15.11.2018 15:00:00 8,2 7,3 14 8 25 14 SSE 1023,1 2,9
15.11.2018 14:00:00 8,0 6,9 14 8 25 14 SSE 1023,2 3,5
15.11.2018 13:00:00 7,6 6,8 21 11 - - SSE 1023,3 1,8
15.11.2018 12:00:00 10,0 7,2 14 8 22 12 SSE 1023,3 7
15.11.2018 11:00:00 9,3 6,6 11 6 18 10 SSE 1023,7 7
15.11.2018 10:00:00 7,8 5,9 11 6 - - SSE 1023,8 6
15.11.2018 09:00:00 6,6 5,5 8 4 11 6 SE 1023,7 4,2
15.11.2018 08:00:00 6,1 5,1 7 4 11 6 SE 1023,2 3,7
15.11.2018 07:00:00 6,2 5,2 4 2 - - N 1023,2 4,7
15.11.2018 06:00:00 6,4 5,3 7 4 11 6 SE 1023,1 5
15.11.2018 05:00:00 6,5 5,4 4 2 11 6 N 1023,2 5
15.11.2018 04:00:00 6,5 5,4 7 4 - - SE 1023,2 5
15.11.2018 03:00:00 7,1 6,0 4 2 7 4 N 1023,3 7
15.11.2018 02:00:00 6,9 5,7 4 2 11 6 N 1023,3 5
15.11.2018 01:00:00 7,7 6,3 5 3 - - SE 1023,6 8
15.11.2018 00:00:00 7,6 6,1 7 4 11 6 SSE 1023,7 6
14.11.2018 23:00:00 8,5 6,5 7 4 14 8 SSE 1023,7 12
14.11.2018 22:00:00 8,3 6,4 7 4 - - SSE 1023,7 10
14.11.2018 21:00:00 9,0 6,5 11 6 14 8 SSE 1023,7 14
14.11.2018 20:00:00 8,8 6,7 7 4 11 6 SE 1024,0 11
14.11.2018 19:00:00 9,9 7,2 7 4 - - SE 1024,2 15
14.11.2018 18:00:00 10,3 7,4 7 4 14 8 SE 1024,0 16
14.11.2018 17:00:00 11,8 8,1 13 7 22 12 SSE 1024,4 10
14.11.2018 16:00:00 12,8 8,2 18 10 - - SSE 1024,7 20
14.11.2018 15:00:00 12,8 8,4 22 12 25 14 S 1025,0 20
14.11.2018 14:00:00 12,8 8,8 18 10 25 14 S 1025,4 20
14.11.2018 13:00:00 12,2 8,2 18 10 - - S 1026,0 15
14.11.2018 12:00:00 11,3 8,1 14 8 22 12 S 1026,5 8
14.11.2018 11:00:00 10,2 7,7 11 6 18 10 S 1027,0 8
14.11.2018 10:00:00 7,9 6,4 14 8 - - S 1027,0 8
14.11.2018 09:00:00 6,4 5,3 11 6 14 8 S 1026,7 8
14.11.2018 08:00:00 6,2 5,1 7 4 18 10 S 1026,5 8
14.11.2018 07:00:00 6,9 5,6 11 6 - - S 1026,2 10
14.11.2018 06:00:00 7,0 5,6 11 6 18 10 S 1026,2 10
14.11.2018 05:00:00 7,0 5,6 11 6 18 10 S 1026,2 11
14.11.2018 04:00:00 6,9 5,5 11 6 - - S 1026,7 10
14.11.2018 03:00:00 6,7 5,3 7 4 11 6 SSW 1027,5 11
14.11.2018 02:00:00 7,3 5,6 7 4 14 8 SSW 1028,0 11
14.11.2018 01:00:00 7,9 6,1 11 6 - - SSW 1028,2 11
14.11.2018 00:00:00 7,8 6,1 11 6 18 10 SSW 1028,0 10
13.11.2018 23:00:00 7,9 6,4 7 4 14 8 SSW 1028,0 9
13.11.2018 22:00:00 8,5 7,2 7 4 - - SSW 1028,0 9
13.11.2018 21:00:00 9,1 7,9 11 6 18 10 SSW 1027,5 8
13.11.2018 20:00:00 9,8 8,5 11 6 18 10 SSW 1027,5 9
13.11.2018 19:00:00 9,4 8,1 11 6 - - SSW 1027,2 11
13.11.2018 18:00:00 10,1 8,5 14 8 25 14 SSW 1026,7 12
13.11.2018 17:00:00 11,0 9,0 14 8 25 14 SSW 1026,2 12
13.11.2018 16:00:00 13,0 9,3 16 9 - - WSW 1025,5 10
13.11.2018 15:00:00 13,8 7,6 16 9 25 14 W 1024,7 10
13.11.2018 14:00:00 12,8 9,6 18 10 29 16 SW 1024,5 10
13.11.2018 13:00:00 13,1 9,3 22 12 - - SW 1023,7 18
13.11.2018 12:00:00 11,8 9,1 22 12 32 18 SW 1023,5 13
13.11.2018 11:00:00 10,6 8,1 22 12 32 18 SSW 1022,7 20
13.11.2018 10:00:00 9,5 7,5 25 14 - - SSW 1022,0 20
13.11.2018 09:00:00 8,6 6,7 22 12 29 16 SSW 1020,8 19
13.11.2018 08:00:00 8,5 6,9 22 12 43 23 SSW 1020,0 20
13.11.2018 07:00:00 9,3 7,2 22 12 - - SSW 1019,1 7
13.11.2018 06:00:00 8,8 7,2 18 10 29 16 SW 1018,5 7
13.11.2018 05:00:00 8,1 6,8 11 6 29 16 S 1017,7 14
13.11.2018 04:00:00 8,6 7,0 18 10 - - S 1017,5 15
13.11.2018 03:00:00 8,5 7,0 22 12 29 16 S 1017,3 11
13.11.2018 02:00:00 9,1 7,4 18 10 29 16 S 1017,3 14
13.11.2018 01:00:00 8,8 7,3 22 12 - - S 1016,6 13
13.11.2018 00:00:00 8,9 7,2 14 8 25 14 S 1016,3 16
12.11.2018 23:00:00 8,8 7,3 11 6 18 10 S 1016,2 15
12.11.2018 22:00:00 9,1 7,4 11 6 - - S 1016,5 18
12.11.2018 21:00:00 9,4 7,5 18 10 22 12 S 1016,2 17
12.11.2018 20:00:00 9,8 7,6 14 8 22 12 S 1016,0 20
12.11.2018 19:00:00 10,0 7,8 14 8 - - S 1015,7 20
12.11.2018 18:00:00 10,5 8,0 7 4 14 8 S 1015,5 20
12.11.2018 17:00:00 11,3 8,2 11 6 22 12 S 1014,5 20
12.11.2018 16:00:00 12,5 8,5 14 8 - - SSW 1014,1 20
12.11.2018 15:00:00 12,6 8,9 14 8 25 14 SSW 1013,7 20
12.11.2018 14:00:00 12,2 9,2 18 10 25 14 SSW 1013,5 20
12.11.2018 13:00:00 11,6 8,7 14 8 - - S 1013,1 20
12.11.2018 12:00:00 10,9 9,1 14 8 22 12 S 1013,1 20
12.11.2018 11:00:00 10,3 8,8 11 6 18 10 S 1012,7 10
12.11.2018 10:00:00 9,8 8,8 11 6 - - SSW 1012,5 10
12.11.2018 09:00:00 9,8 8,6 14 8 18 10 S 1011,6 10
12.11.2018 08:00:00 9,8 8,7 7 4 14 8 SSW 1011,2 8
12.11.2018 07:00:00 10,3 9,2 11 6 - - S 1011,0 6
12.11.2018 06:00:00 10,3 9,5 14 8 22 12 SSE 1010,6 5
12.11.2018 05:00:00 10,1 9,4 14 8 22 12 SSE 1010,1 4,0

tt = Température de l'air
td = dewpoint
ff = Vitesse du vent
fx = gusts
dd = Direction du vent
ppp = reduced air pressure
vv = visibility

stations d'obs. à proximité